EW6614 Weather Reports


Display with metric or nautical units.
time (UTC)temp
F
wind
direction
speed
MPH
gust
MPH
rain 1hr
in
rain 24hr
in
rain mn
in
humidity
%
barometer
mb
20260903161623 84 123 3.0 8.0 0.00 0.55 0.02 52 1015.1
20260903161532 84 123 2.0 8.0 0.00 0.56 0.02 64 1015.0
20260903160106 82 308 1.0 6.0 0.00 0.55 0.02 55 1015.2
20260903160035 82 306 1.0 5.0 0.00 0.56 0.02 66 1015.1
20260903154605 81 0 1.0 4.0 0.00 0.57 0.02 54 1015.2
20260903154524 81 271 1.0 4.0 0.00 0.61 0.02 66 1015.1
20260903153104 80 200 2.0 7.0 0.01 0.57 0.02 54 1015.0
20260903153020 80 200 1.0 5.0 0.01 0.61 0.02 66 1014.9
20260903151604 79 179 1.0 7.0 0.01 0.57 0.02 53 1014.9
20260903151519 79 179 1.0 6.0 0.01 0.61 0.02 64 1014.8
20260903150120 79 0 1.0 4.0 0.01 0.57 0.02 53 1015.1
20260903150017 78 208 1.0 4.0 0.01 0.61 0.02 64 1015.0
20260903144608 77 0 1.0 6.0 0.01 0.61 0.02 52 1015.2
20260903144532 77 199 0.0 6.0 0.01 0.63 0.02 64 1015.1
20260903143105 78 0 0.0 4.0 0.00 0.60 0.01 54 1015.2
20260903143016 78 256 0.0 4.0 0.00 0.62 0.01 65 1015.2
20260903141604 77 0 0.0 3.0 0.00 0.60 0.01 54 1015.1
20260903141515 77 257 0.0 3.0 0.00 0.62 0.01 66 1015.1
20260903140114 77 0 1.0 4.0 0.00 0.60 0.01 54 1015.4
20260903140014 77 253 1.0 4.0 0.00 0.62 0.01 66 1015.3
20260903134616 78 0 0.0 4.0 0.00 0.62 0.01 54 1015.4
20260903134513 78 223 0.0 4.0 0.00 0.86 0.01 66 1015.3
20260903133106 78 0 0.0 0.0 0.00 0.62 0.01 54 1015.3
20260903133016 78 162 0.0 0.0 0.00 0.86 0.01 66 1015.2
20260903131608 78 0 0.0 2.0 0.00 0.62 0.01 54 1015.3
20260903131511 78 162 0.0 2.0 0.00 0.86 0.01 66 1015.2
20260903130010 78 360 0.0 2.0 0.00 0.86 0.01 66 1015.2
20260903124631 77 360 1.0 3.0 0.00 0.86 0.01 54 1014.5
20260903124506 77 360 1.0 3.0 0.00 0.86 0.01 66 1014.5
20260903123102 77 0 0.0 0.0 0.00 0.86 0.01 54 1014.5
20260903123005 77 360 0.0 0.0 0.00 0.86 0.01 66 1014.6
20260903121558 77 360 1.0 4.0 0.00 0.86 0.01 54 1014.5
20260903121508 77 360 1.0 4.0 0.00 0.86 0.01 66 1014.4
20260903120059 76 0 0.0 0.0 0.00 0.86 0.01 54 1014.1
20260903120003 76 360 0.0 0.0 0.00 0.86 0.01 65 1014.1
20260903114609 77 0 0.0 0.0 0.00 0.86 0.01 54 1014.0
20260903114501 77 360 0.0 0.0 0.00 0.86 0.01 65 1014.0
20260903113106 77 0 0.0 0.0 0.00 0.86 0.01 54 1014.1
20260903113100 77 360 0.0 0.0 0.00 0.86 0.01 65 1014.1
20260903111601 77 0 0.0 0.0 0.00 0.86 0.01 54 1014.0
20260903110107 77 0 0.0 1.0 0.00 0.86 0.01 54 1014.0
20260903110058 77 360 0.0 1.0 0.00 0.86 0.01 65 1013.9
20260903104606 77 0 0.0 0.0 0.00 0.86 0.01 54 1013.9
20260903104602 77 360 0.0 0.0 0.00 0.86 0.01 65 1013.8
20260903103105 77 0 0.0 3.0 0.00 0.86 0.01 54 1013.9
20260903103057 77 360 0.0 3.0 0.00 0.86 0.01 65 1013.7
20260903101604 76 0 0.0 0.0 0.00 0.86 0.01 54 1013.7
20260903101559 76 360 0.0 0.0 0.00 0.86 0.01 65 1013.6
20260903100107 77 0 0.0 1.0 0.00 0.86 0.01 54 1013.7
20260903100055 77 360 0.0 1.0 0.00 0.86 0.01 65 1013.6
20260903094607 77 0 0.0 4.0 0.00 0.86 0.01 54 1013.7
20260903094605 77 360 0.0 4.0 0.00 0.86 0.01 65 1013.5
20260903093105 77 360 1.0 3.0 0.01 0.86 0.01 53 1013.7
20260903093101 77 360 2.0 3.0 0.01 0.86 0.01 65 1013.5
20260903091600 76 0 0.0 0.0 0.01 0.86 0.01 53 1013.7
20260903091558 76 360 0.0 0.0 0.01 0.86 0.01 65 1013.5
20260903090058 76 360 0.0 0.0 0.01 0.86 0.01 64 1013.4
20260903084619 77 0 0.0 0.0 0.01 0.86 0.01 53 1013.6
20260903084554 77 360 0.0 0.0 0.01 0.86 0.01 64 1013.4
20260903083108 77 0 0.0 1.0 0.00 0.85 0.00 53 1013.7
20260903083052 77 360 0.0 1.0 0.00 0.85 0.00 64 1013.4
20260903081602 77 0 0.0 1.0 0.00 0.85 0.00 53 1013.6
20260903081552 77 360 0.0 0.0 0.00 0.85 0.00 64 1013.4
20260903080105 77 0 0.0 4.0 0.00 0.85 0.00 53 1013.5
20260903080051 77 360 0.0 2.0 0.00 0.85 0.00 64 1013.4
20260903074608 77 360 1.0 4.0 0.00 0.85 0.00 53 1013.5
20260903074550 77 360 1.0 4.0 0.00 0.85 0.00 64 1013.3
20260903073108 77 360 1.0 4.0 0.00 0.85 0.00 53 1013.4
20260903073056 77 360 1.0 3.0 0.00 0.85 0.00 64 1013.2
20260903071605 77 360 1.0 6.0 0.00 0.85 0.00 53 1013.4
20260903071550 77 360 1.0 6.0 0.00 0.85 0.00 64 1013.3
20260903070104 77 360 2.0 5.0 0.00 0.85 0.00 53 1013.4
20260903070043 77 360 1.0 5.0 0.00 0.85 0.00 64 1013.2
20260903064603 76 0 0.0 4.0 0.00 0.85 0.00 53 1013.6
20260903064540 76 360 0.0 5.0 0.00 0.85 0.00 64 1013.4
20260903063103 76 0 0.0 0.0 0.00 0.85 0.00 52 1013.7
20260903063043 76 360 0.0 0.0 0.00 0.85 0.00 64 1013.4
20260903061604 76 0 0.0 0.0 0.00 0.85 0.00 52 1013.6
20260903061543 76 360 0.0 1.0 0.00 0.85 0.00 63 1013.4
20260903060108 76 0 0.0 0.0 0.00 0.85 0.00 52 1013.7
20260903060051 76 360 0.0 0.0 0.00 0.85 0.00 63 1013.4
20260903054604 76 0 0.0 1.0 0.00 0.85 0.00 52 1013.9
20260903054537 76 360 0.0 1.0 0.00 0.85 0.00 63 1013.7
20260903053107 76 360 0.0 4.0 0.00 0.85 0.00 52 1013.9
20260903053043 76 360 0.0 4.0 0.00 0.85 0.00 64 1013.7
20260903051606 76 0 0.0 3.0 0.00 0.85 0.00 52 1013.8
20260903051536 76 360 0.0 1.0 0.00 0.85 0.00 63 1013.6
20260903050106 76 0 1.0 5.0 0.01 0.85 0.00 52 1013.7
20260903050037 76 360 1.0 5.0 0.01 0.85 0.00 63 1013.5
20260903044604 75 0 0.0 3.0 0.01 0.85 0.85 52 1013.7
20260903044533 75 360 0.0 2.0 0.01 0.85 0.52 63 1013.4
20260903043101 75 0 0.0 2.0 0.01 0.85 0.85 51 1013.7
20260903043032 75 360 0.0 2.0 0.01 0.85 0.52 63 1013.5
20260903041602 75 0 0.0 2.0 0.02 0.85 0.85 51 1013.8
20260903041535 75 360 0.0 1.0 0.02 0.85 0.52 63 1013.6
20260903040107 75 0 0.0 3.0 0.01 0.84 0.84 51 1013.8
20260903040031 75 360 0.0 3.0 0.01 0.84 0.51 62 1013.6
20260903034602 75 0 0.0 0.0 0.02 0.84 0.84 51 1014.0
20260903034531 75 360 0.0 0.0 0.02 0.84 0.51 62 1013.9
20260903033110 75 0 0.0 0.0 0.04 0.84 0.84 51 1014.1
20260903033031 75 360 0.0 0.0 0.04 0.84 0.51 63 1013.9
20260903031604 74 0 0.0 0.0 0.05 0.83 0.83 51 1014.3
20260903031539 74 360 0.0 0.0 0.05 0.83 0.50 63 1014.2
20260903030106 74 0 0.0 0.0 0.06 0.83 0.83 51 1014.4
20260903030030 74 360 0.0 0.0 0.06 0.83 0.50 63 1014.2
20260903024602 74 0 0.0 0.0 0.06 0.82 0.82 51 1014.4
20260903024527 74 360 0.0 0.0 0.06 0.82 0.49 63 1014.2
20260903023104 74 0 0.0 1.0 0.06 0.80 0.80 51 1014.4
20260903023030 74 360 0.0 1.0 0.06 0.80 0.47 63 1014.2
20260903021604 73 0 0.0 1.0 0.07 0.78 0.78 52 1014.1
20260903021537 73 360 0.0 1.0 0.07 0.78 0.45 63 1013.9
20260903020104 73 0 0.0 3.0 0.09 0.77 0.77 52 1013.8
20260903020027 73 360 0.0 3.0 0.09 0.77 0.44 63 1013.5
20260903014612 73 360 0.0 3.0 0.10 0.76 0.76 52 1013.8
20260903014522 73 360 1.0 3.0 0.10 0.76 0.43 64 1013.5
20260903013100 73 360 1.0 3.0 0.11 0.74 0.74 53 1013.8
20260903013021 73 360 1.0 3.0 0.11 0.74 0.41 64 1013.5
20260903011602 73 0 0.0 0.0 0.11 0.71 0.71 53 1013.6
20260903011525 73 360 0.0 0.0 0.11 0.71 0.38 65 1013.3
20260903010105 74 0 0.0 3.0 0.10 0.68 0.68 54 1013.6
20260903010025 74 360 0.0 3.0 0.10 0.68 0.35 65 1013.3
20260903004601 74 0 1.0 3.0 0.14 0.66 0.66 54 1013.8
20260903004522 74 360 0.0 3.0 0.14 0.66 0.33 66 1013.5
20260903003100 74 360 0.0 3.0 0.14 0.63 0.63 55 1013.8
20260903003018 74 360 0.0 3.0 0.14 0.63 0.30 66 1013.4
20260903001600 74 0 0.0 2.0 0.11 0.60 0.60 55 1013.9
20260903001517 74 360 0.0 2.0 0.11 0.60 0.27 67 1013.5
20260903000103 74 0 0.0 3.0 0.21 0.58 0.58 56 1013.9
20260903000034 74 360 0.0 3.0 0.21 0.56 0.24 67 1013.7
20260902234601 74 360 1.0 3.0 0.19 0.52 0.52 57 1014.0
20260902234515 74 360 0.0 3.0 0.19 0.52 0.19 68 1013.7
20260902233104 75 360 3.0 8.0 0.16 0.49 0.49 58 1014.0
20260902233013 75 360 2.0 8.0 0.16 0.49 0.16 69 1013.5
20260902231603 76 360 3.0 14.0 0.16 0.49 0.49 57 1013.9
20260902231508 76 360 4.0 14.0 0.15 0.48 0.15 69 1013.6
20260902230111 80 360 1.0 4.0 0.03 0.36 0.36 56 1013.5
20260902230004 80 360 2.0 4.0 0.02 0.35 0.02 68 1012.8
20260902224606 80 360 0.0 2.0 0.00 0.33 0.33 56 1013.4
20260902224502 81 360 0.0 2.0 0.00 0.33 0.00 67 1013.0
20260902223118 81 165 1.0 6.0 0.00 0.33 0.33 55 1013.1
20260902223109 81 165 0.0 6.0 0.00 0.33 0.00 67 1012.7
20260902221600 81 128 1.0 7.0 0.00 0.33 0.33 55 1012.8
20260902221557 81 128 2.0 6.0 0.00 0.33 0.00 67 1012.5
20260902220104 81 140 2.0 3.0 0.00 0.33 0.33 55 1013.0
20260902214617 80 146 2.0 9.0 0.00 0.33 0.33 55 1013.3
20260902214600 80 146 1.0 7.0 0.00 0.33 0.00 67 1012.9
20260902213111 80 144 3.0 9.0 0.00 0.33 0.33 55 1013.4
20260902213042 80 137 3.0 9.0 0.00 0.33 0.00 67 1013.2
20260902211608 80 150 5.0 13.0 0.00 0.33 0.33 55 1013.2
20260902211537 80 175 4.0 11.0 0.00 0.33 0.00 67 1012.9
20260902210107 0 0.0 0.0 0.00 0.33 0.33 1013.1
20260902204601 80 96 6.0 15.0 0.00 0.33 0.33 55 1013.5
20260902204553 80 96 7.0 16.0 0.00 0.33 0.33 66 1013.1
20260902203110 80 134 5.0 14.0 0.00 0.33 0.33 55 1013.8
20260902203052 80 134 5.0 12.0 0.00 0.33 0.33 66 1013.5
20260902201603 80 137 6.0 11.0 0.00 0.33 0.33 54 1014.0
20260902201553 80 122 5.0 11.0 0.00 0.33 0.33 66 1013.6
20260902200100 79 91 4.0 9.0 0.00 0.33 0.33 53 1014.1
20260902200051 79 85 4.0 9.0 0.00 0.33 0.33 64 1013.6
20260902194558 79 126 3.0 9.0 0.00 0.33 0.33 52 1014.0
20260902194551 79 126 4.0 8.0 0.00 0.33 0.33 64 1013.6
20260902193126 78 360 3.0 10.0 0.00 0.33 0.33 51 1014.1
20260902193051 78 360 4.0 10.0 0.00 0.33 0.33 62 1013.7
20260902191603 78 360 3.0 10.0 0.00 0.33 0.33 51 1014.2
20260902191550 78 360 4.0 10.0 0.00 0.33 0.33 62 1013.9
20260902190136 78 111 4.0 8.0 0.00 0.33 0.33 50 1014.1
20260902190048 78 111 4.0 9.0 0.00 0.33 0.33 61 1013.8
20260902184620 77 178 3.0 10.0 0.00 0.33 0.33 50 1014.3
20260902184548 77 360 2.0 10.0 0.00 0.33 0.33 61 1014.0
20260902183118 77 159 3.0 9.0 0.00 0.33 0.33 50 1014.4
20260902183057 77 159 3.0 9.0 0.00 0.33 0.33 62 1014.2
20260902181558 77 146 2.0 8.0 0.00 0.33 0.33 51 1014.5
20260902181548 77 146 3.0 8.0 0.00 0.33 0.33 62 1014.2
20260902180105 76 360 2.0 8.0 0.01 0.33 0.33 51 1014.6
20260902180046 76 360 3.0 8.0 0.01 0.33 0.33 62 1014.4
20260902174607 76 360 4.0 12.0 0.01 0.33 0.33 51 1014.9
20260902174552 76 360 4.0 12.0 0.01 0.33 0.33 62 1014.6
20260902173107 76 360 3.0 5.0 0.01 0.33 0.33 63 1014.8
20260902173104 76 360 3.0 5.0 0.01 0.33 0.33 51 1015.1
20260902171607 75 360 3.0 9.0 0.01 0.33 0.33 51 1015.3
20260902171545 75 360 2.0 9.0 0.01 0.33 0.33 63 1015.1
20260902170043 75 360 3.0 10.0 0.00 0.32 0.32 62 1015.3
20260902164607 75 360 3.0 8.0 0.01 0.32 0.32 51 1015.4
20260902164544 75 360 3.0 9.0 0.01 0.32 0.32 62 1015.1
20260902163104 75 360 4.0 13.0 0.01 0.32 0.32 51 1015.4
20260902163042 75 360 6.0 10.0 0.01 0.32 0.32 62 1015.2